Location: Unspecified
(51.5147°N, 7.4673°E)
Time: 12:53:43
(UTC+01:00)

A-11 Canister half - Pass Details

Date: 22 February 2026
Orbit: 1513 x 1686 km, 47.2° (Epoch: 17 March)

Event Time Altitude Azimuth Distance (km) Brightness Sun altitude
Rises 17:54:24 0° 175° (S) 4,921 11.8 -0.3°
Reaches altitude 10° 17:59:35 10° 154° (SSE) 3,944 11.0 -1.1°
Maximum altitude 18:04:22 15° 125° (SE) 3,589 10.6 -1.8°
Drops below altitude 10° 18:09:08 10° 96° (E) 3,939 10.6 -2.5°
Enters shadow 18:12:40 - 80° (E) 4,564 10.8 -3.1°
Sets 18:14:15 0° 75° (ENE) 4,911 - -3.3°
